ENST Weather Reports


Display with metric or nautical units.
time (UTC)temp
F
wind
direction
speed
MPH
gust
MPH
rain 1hr
in
rain 24hr
in
rain mn
in
humidity
%
barometer
mb
20260508053307 41 0 0.0 0.0 0.00 0.00 0.00 86 1022.0
20260508050306 39 0 0.0 0.0 0.00 0.00 0.00 86 1022.0
20260508043306 37 0 1.0 0.0 0.00 0.00 0.00 93 1022.0
20260508040307 37 0 1.0 0.0 0.00 0.00 0.00 93 1022.0
20260508033306 35 110 3.0 0.0 0.00 0.00 0.00 93 1022.0
20260508030306 35 120 5.0 0.0 0.00 0.00 0.00 93 1022.0
20260508023307 37 100 6.0 0.0 0.00 0.00 0.00 86 1022.0
20260508020307 39 200 12.0 0.0 0.00 0.00 0.00 80 1022.0
20260508013307 39 160 6.0 0.0 0.00 0.00 0.00 80 1021.0
20260508010306 37 120 5.0 0.0 0.00 0.00 0.00 86 1021.0
20260508003306 37 180 15.0 0.0 0.00 0.00 0.00 80 1021.0
20260508000306 39 180 10.0 0.0 0.00 0.00 0.00 75 1021.0
20260507233306 37 180 14.0 0.0 0.00 0.00 0.00 80 1021.0
20260507230306 37 190 7.0 0.0 0.00 0.00 0.00 86 1021.0
20260507223306 37 130 3.0 0.0 0.00 0.00 0.00 86 1020.0
20260507220306 37 270 7.0 0.0 0.00 0.00 0.00 80 1020.0
20260507213306 39 180 5.0 0.0 0.00 0.00 0.00 80 1020.0
20260507210307 39 180 6.0 0.0 0.00 0.00 0.00 80 1020.0
20260507203307 39 190 5.0 0.0 0.00 0.00 0.00 86 1019.0
20260507200305 41 230 7.0 0.0 0.00 0.00 0.00 80 1019.0
20260507193306 41 230 8.0 0.0 0.00 0.00 0.00 80 1019.0
20260507190307 42 240 6.0 0.0 0.00 0.00 0.00 75 1018.0
20260507183307 42 230 7.0 0.0 0.00 0.00 0.00 75 1018.0
20260507180310 42 230 8.0 0.0 0.00 0.00 0.00 75 1018.0
20260507173308 42 230 9.0 0.0 0.00 0.00 0.00 75 1018.0
20260507170307 42 240 8.0 0.0 0.00 0.00 0.00 70 1018.0
20260507163307 42 240 9.0 0.0 0.00 0.00 0.00 75 1017.0
20260507160308 42 240 8.0 0.0 0.00 0.00 0.00 81 1017.0
20260507153308 41 220 3.0 0.0 0.00 0.00 0.00 80 1017.0
20260507150308 37 240 7.0 0.0 0.00 0.00 0.00 86 1017.0
20260507143307 41 210 13.0 0.0 0.00 0.00 0.00 80 1017.0
20260507140308 42 210 14.0 0.0 0.00 0.00 0.00 75 1017.0
20260507133307 42 210 13.0 0.0 0.00 0.00 0.00 75 1017.0
20260507130307 42 210 15.0 0.0 0.00 0.00 0.00 81 1016.0
20260507123308 42 210 14.0 0.0 0.00 0.00 0.00 75 1016.0
20260507120307 42 210 12.0 0.0 0.00 0.00 0.00 81 1016.0
20260507113308 41 200 14.0 0.0 0.00 0.00 0.00 86 1016.0
20260507110307 41 210 14.0 0.0 0.00 0.00 0.00 93 1016.0
20260507103307 37 190 12.0 0.0 0.00 0.00 0.00 93 1016.0
20260507100308 37 190 12.0 0.0 0.00 0.00 0.00 93 1016.0
20260507093307 37 180 10.0 0.0 0.00 0.00 0.00 86 1015.0
20260507090308 35 190 10.0 0.0 0.00 0.00 0.00 93 1015.0
20260507083307 35 190 10.0 0.0 0.00 0.00 0.00 93 1015.0
20260507080308 33 190 15.0 0.0 0.00 0.00 0.00 93 1015.0
20260507073307 35 190 13.0 0.0 0.00 0.00 0.00 93 1014.0
20260507070307 35 220 10.0 0.0 0.00 0.00 0.00 93 1014.0
20260507063307 37 220 15.0 0.0 0.00 0.00 0.00 86 1014.0
20260507060306 39 190 12.0 0.0 0.00 0.00 0.00 80 1013.0